Location: Gleizolles
(44.4833°N, 6.7667°E)
Time: 01:24:38
(UTC+00:00)

Vanguard 2 Rocket - Pass Details

Date: 20 June 2024
Orbit: 555 x 3302 km, 32.9° (Epoch: 24 July)

Event Time Altitude Azimuth Distance (km) Brightness Sun altitude
Rises 02:26:48 0° 231° (SW) 7,045 - -11.5°
Reaches altitude 10° 02:31:39 10° 226° (SW) 6,171 - -11.0°
Exits shadow 02:32:31 12° 225° (SW) 6,019 10.4 -10.9°
Maximum altitude 02:50:08 47° 161° (SSE) 3,807 9.8 -8.7°
Drops below altitude 10° 03:05:08 10° 95° (E) 5,111 11.4 -6.8°
Sets 03:08:40 0° 90° (E) 5,803 11.8 -6.3°
